Volver al catálogo

STARLINK-33967

ActivoComunicacionesVLEO
NORAD 64027·PAYLOAD·🇺🇸 United States

Lanzado May 16, 2025 desde Vandenberg Space Force Base

Loading…

Próximos Pases (próximas 24 horas)

TLE

ActualizadoSource: CelesTrak SupGP

Época: Sep 15, 2026, 02:17 UTC

1 64027C 25102F   26258.09562500  .00083626  00000+0  29091-2 0  2584
2 64027  70.0009 355.3456 0003283 268.5341  39.4787 15.29536804    15

Sigue STARLINK-33967 en tiempo real con AllMySat

Download on the App Store